| time (UTC) | temp F | wind direction | speed MPH | gust MPH | rain 1hr in | rain 24hr in | rain mn in | humidity % | barometer mb |
| 20260506050516 | 51 | 49 | 2.0 | 5.0 | 0.00 | 0.00 | 0.00 | 74 | 1010.3 |
| 20260506044527 | 50 | 351 | 2.0 | 5.0 | 0.00 | 0.00 | 0.00 | 74 | 1010.3 |
| 20260506043526 | 50 | 24 | 2.0 | 5.0 | 0.00 | 0.00 | 0.00 | 74 | 1010.2 |
| 20260506042516 | 50 | 76 | 2.0 | 4.0 | 0.00 | 0.00 | 0.00 | 74 | 1010.4 |
| 20260506041517 | 50 | 110 | 2.0 | 5.0 | 0.00 | 0.00 | 0.00 | 73 | 1010.5 |
| 20260506040517 | 50 | 357 | 2.0 | 6.0 | 0.00 | 0.00 | 0.00 | 73 | 1010.5 |
| 20260506035520 | 50 | 24 | 2.0 | 4.0 | 0.00 | 0.00 | 0.00 | 73 | 1010.5 |
| 20260506034542 | 50 | 73 | 1.0 | 5.0 | 0.00 | 0.00 | 0.00 | 73 | 1010.5 |
| 20260506033522 | 50 | 172 | 1.0 | 4.0 | 0.00 | 0.00 | 0.00 | 73 | 1010.5 |
| 20260506032524 | 50 | 86 | 1.0 | 3.0 | 0.00 | 0.00 | 0.00 | 72 | 1010.6 |
| 20260506031526 | 50 | 95 | 1.0 | 2.0 | 0.00 | 0.00 | 0.00 | 72 | 1010.7 |
| 20260506030537 | 50 | 55 | 2.0 | 5.0 | 0.00 | 0.00 | 0.00 | 73 | 1010.7 |
| 20260506025518 | 50 | 80 | 2.0 | 7.0 | 0.00 | 0.00 | 0.00 | 73 | 1010.7 |
| 20260506024530 | 49 | 39 | 2.0 | 4.0 | 0.00 | 0.00 | 0.00 | 73 | 1010.9 |
| 20260506023542 | 49 | 254 | 1.0 | 4.0 | 0.00 | 0.00 | 0.00 | 73 | 1011.0 |
| 20260506022525 | 49 | 32 | 2.0 | 3.0 | 0.00 | 0.00 | 0.00 | 73 | 1011.0 |
| 20260506021516 | 49 | 22 | 1.0 | 3.0 | 0.00 | 0.00 | 0.00 | 73 | 1011.0 |
| 20260506020558 | 49 | 106 | 1.0 | 3.0 | 0.00 | 0.00 | 0.00 | 73 | 1011.1 |
| 20260506015529 | 49 | 29 | 1.0 | 4.0 | 0.00 | 0.00 | 0.00 | 73 | 1011.2 |
| 20260506014517 | 49 | 320 | 2.0 | 3.0 | 0.00 | 0.00 | 0.00 | 73 | 1011.2 |
| 20260506013517 | 49 | 9 | 2.0 | 5.0 | 0.00 | 0.00 | 0.00 | 73 | 1011.2 |
| 20260506012518 | 49 | 22 | 1.0 | 4.0 | 0.00 | 0.00 | 0.00 | 73 | 1011.3 |
| 20260506011520 | 48 | 100 | 1.0 | 2.0 | 0.00 | 0.00 | 0.00 | 73 | 1011.4 |
| 20260506010515 | 48 | 29 | 1.0 | 4.0 | 0.00 | 0.00 | 0.00 | 73 | 1011.6 |
| 20260506005517 | 48 | 21 | 1.0 | 3.0 | 0.00 | 0.00 | 0.00 | 73 | 1011.7 |
| 20260506004519 | 48 | 121 | 1.0 | 4.0 | 0.00 | 0.00 | 0.00 | 73 | 1011.9 |
| 20260506003542 | 48 | 158 | 2.0 | 6.0 | 0.00 | 0.00 | 0.00 | 72 | 1012.0 |
| 20260506002525 | 48 | 83 | 1.0 | 3.0 | 0.00 | 0.00 | 0.00 | 72 | 1012.0 |
| 20260506001526 | 48 | 192 | 1.0 | 4.0 | 0.00 | 0.00 | 0.00 | 71 | 1012.0 |
| 20260506000525 | 48 | 69 | 2.0 | 3.0 | 0.00 | 0.00 | 0.00 | 70 | 1012.0 |
| 20260505235525 | 48 | 29 | 1.0 | 2.0 | 0.00 | 0.00 | 0.00 | 70 | 1012.1 |
| 20260505234517 | 48 | 109 | 2.0 | 5.0 | 0.00 | 0.00 | 0.00 | 70 | 1012.3 |
| 20260505233518 | 47 | 33 | 1.0 | 3.0 | 0.00 | 0.00 | 0.00 | 69 | 1012.5 |
| 20260505232521 | 48 | 68 | 2.0 | 5.0 | 0.00 | 0.00 | 0.00 | 69 | 1012.6 |
| 20260505231520 | 48 | 360 | 1.0 | 5.0 | 0.00 | 0.00 | 0.00 | 68 | 1012.7 |
| 20260505230542 | 48 | 142 | 1.0 | 2.0 | 0.00 | 0.00 | 0.00 | 68 | 1012.7 |
| 20260505225523 | 48 | 332 | 1.0 | 5.0 | 0.00 | 0.00 | 0.00 | 67 | 1012.7 |
| 20260505224524 | 48 | 102 | 1.0 | 3.0 | 0.00 | 0.00 | 0.00 | 67 | 1012.8 |
| 20260505223515 | 48 | 79 | 2.0 | 4.0 | 0.00 | 0.00 | 0.00 | 66 | 1012.8 |
| 20260505222538 | 48 | 55 | 1.0 | 4.0 | 0.00 | 0.00 | 0.00 | 66 | 1012.9 |
| 20260505221520 | 48 | 134 | 1.0 | 5.0 | 0.00 | 0.00 | 0.00 | 66 | 1013.0 |
| 20260505220519 | 49 | 19 | 1.0 | 3.0 | 0.00 | 0.00 | 0.00 | 65 | 1013.1 |
| 20260505215539 | 49 | 139 | 1.0 | 3.0 | 0.00 | 0.00 | 0.00 | 65 | 1013.1 |
| 20260505214516 | 49 | 52 | 1.0 | 1.0 | 0.00 | 0.00 | 0.00 | 65 | 1013.2 |
| 20260505213541 | 49 | 323 | 0.0 | 4.0 | 0.00 | 0.00 | 0.00 | 64 | 1013.3 |
| 20260505212519 | 49 | 46 | 1.0 | 1.0 | 0.00 | 0.00 | 0.00 | 64 | 1013.4 |
| 20260505211530 | 50 | 108 | 1.0 | 3.0 | 0.00 | 0.00 | 0.00 | 64 | 1013.5 |
| 20260505210516 | 50 | 24 | 1.0 | 3.0 | 0.00 | 0.00 | 0.00 | 64 | 1013.6 |
| 20260505205518 | 50 | 95 | 1.0 | 3.0 | 0.00 | 0.00 | 0.00 | 63 | 1013.8 |
| 20260505204518 | 50 | 118 | 2.0 | 4.0 | 0.00 | 0.00 | 0.00 | 63 | 1013.7 |
| 20260505203539 | 50 | 42 | 2.0 | 4.0 | 0.00 | 0.00 | 0.00 | 63 | 1013.6 |
| 20260505202524 | 50 | 12 | 2.0 | 5.0 | 0.00 | 0.00 | 0.00 | 63 | 1013.5 |
| 20260505201526 | 50 | 16 | 2.0 | 5.0 | 0.00 | 0.00 | 0.00 | 63 | 1013.5 |
| 20260505200525 | 50 | 55 | 2.0 | 4.0 | 0.00 | 0.00 | 0.00 | 62 | 1013.6 |
| 20260505195526 | 51 | 34 | 2.0 | 3.0 | 0.00 | 0.00 | 0.00 | 62 | 1013.6 |
| 20260505194541 | 51 | 339 | 2.0 | 5.0 | 0.00 | 0.00 | 0.00 | 62 | 1013.4 |
| 20260505193521 | 51 | 121 | 2.0 | 4.0 | 0.00 | 0.00 | 0.00 | 61 | 1013.3 |
| 20260505192523 | 51 | 81 | 2.0 | 4.0 | 0.00 | 0.00 | 0.00 | 61 | 1013.2 |
| 20260505191519 | 52 | 101 | 2.0 | 3.0 | 0.00 | 0.00 | 0.00 | 60 | 1013.1 |
| 20260505190521 | 52 | 142 | 3.0 | 5.0 | 0.00 | 0.00 | 0.00 | 59 | 1013.2 |
| 20260505185523 | 53 | 121 | 3.0 | 5.0 | 0.00 | 0.00 | 0.00 | 59 | 1013.3 |
| 20260505184524 | 53 | 44 | 3.0 | 5.0 | 0.00 | 0.00 | 0.00 | 59 | 1013.2 |
| 20260505183524 | 54 | 112 | 3.0 | 6.0 | 0.00 | 0.00 | 0.00 | 58 | 1013.2 |
| 20260505182526 | 54 | 39 | 4.0 | 9.0 | 0.00 | 0.00 | 0.00 | 58 | 1013.3 |
| 20260505181516 | 55 | 85 | 4.0 | 7.0 | 0.00 | 0.00 | 0.00 | 58 | 1013.3 |
| 20260505180540 | 55 | 35 | 5.0 | 10.0 | 0.00 | 0.00 | 0.00 | 57 | 1013.4 |
| 20260505175522 | 56 | 123 | 4.0 | 11.0 | 0.00 | 0.00 | 0.00 | 56 | 1013.5 |
| 20260505174523 | 56 | 126 | 5.0 | 8.0 | 0.00 | 0.00 | 0.00 | 55 | 1013.5 |
| 20260505173522 | 56 | 58 | 5.0 | 10.0 | 0.00 | 0.00 | 0.00 | 55 | 1013.5 |
| 20260505172525 | 57 | 58 | 4.0 | 11.0 | 0.00 | 0.00 | 0.00 | 55 | 1013.4 |
| 20260505171525 | 57 | 55 | 3.0 | 9.0 | 0.00 | 0.00 | 0.00 | 55 | 1013.3 |
| 20260505170524 | 57 | 19 | 4.0 | 8.0 | 0.00 | 0.00 | 0.00 | 54 | 1013.3 |
| 20260505165528 | 58 | 73 | 3.0 | 7.0 | 0.00 | 0.00 | 0.00 | 53 | 1013.3 |
| 20260505164526 | 58 | 79 | 4.0 | 6.0 | 0.00 | 0.00 | 0.00 | 52 | 1013.4 |
| 20260505163544 | 59 | 65 | 4.0 | 10.0 | 0.00 | 0.00 | 0.00 | 51 | 1013.5 |
| 20260505162525 | 59 | 74 | 5.0 | 7.0 | 0.00 | 0.00 | 0.00 | 50 | 1013.5 |
| 20260505161516 | 59 | 99 | 4.0 | 6.0 | 0.00 | 0.00 | 0.00 | 49 | 1013.6 |
| 20260505160544 | 60 | 68 | 4.0 | 10.0 | 0.00 | 0.00 | 0.00 | 49 | 1013.6 |
| 20260505152518 | 61 | 97 | 4.0 | 11.0 | 0.00 | 0.00 | 0.00 | 48 | 1013.6 |
| 20260505151520 | 61 | 105 | 4.0 | 7.0 | 0.00 | 0.00 | 0.00 | 48 | 1013.5 |
| 20260505150524 | 61 | 103 | 3.0 | 9.0 | 0.00 | 0.00 | 0.00 | 48 | 1013.5 |
| 20260505140519 | 61 | 65 | 4.0 | 7.0 | 0.00 | 0.00 | 0.00 | 48 | 1013.6 |
| 20260505124521 | 60 | 86 | 5.0 | 11.0 | 0.00 | 0.00 | 0.00 | 49 | 1013.6 |
| 20260505123524 | 60 | 59 | 5.0 | 7.0 | 0.00 | 0.00 | 0.00 | 50 | 1013.5 |
| 20260505122524 | 60 | 58 | 5.0 | 10.0 | 0.00 | 0.00 | 0.00 | 50 | 1013.6 |
| 20260505121522 | 59 | 79 | 5.0 | 9.0 | 0.00 | 0.00 | 0.00 | 51 | 1013.6 |
| 20260505120524 | 60 | 125 | 3.0 | 9.0 | 0.00 | 0.00 | 0.00 | 50 | 1013.7 |
| 20260505115516 | 60 | 43 | 4.0 | 6.0 | 0.00 | 0.00 | 0.00 | 51 | 1013.8 |
| 20260505114516 | 60 | 79 | 4.0 | 11.0 | 0.00 | 0.00 | 0.00 | 50 | 1013.7 |
| 20260505113518 | 59 | 347 | 4.0 | 9.0 | 0.00 | 0.00 | 0.00 | 51 | 1013.7 |
| 20260505112539 | 59 | 60 | 4.0 | 5.0 | 0.00 | 0.00 | 0.00 | 52 | 1013.7 |
| 20260505111521 | 59 | 72 | 4.0 | 8.0 | 0.00 | 0.00 | 0.00 | 52 | 1013.7 |
| 20260505110524 | 59 | 23 | 3.0 | 9.0 | 0.00 | 0.00 | 0.00 | 53 | 1013.8 |
| 20260505101518 | 58 | 58 | 5.0 | 6.0 | 0.00 | 0.00 | 0.00 | 53 | 1013.9 |
| 20260505100519 | 58 | 75 | 5.0 | 8.0 | 0.00 | 0.00 | 0.00 | 53 | 1013.9 |
| 20260505095518 | 57 | 108 | 5.0 | 8.0 | 0.00 | 0.00 | 0.00 | 53 | 1013.8 |
| 20260505094520 | 57 | 154 | 5.0 | 8.0 | 0.00 | 0.00 | 0.00 | 54 | 1013.8 |
| 20260505093524 | 57 | 62 | 5.0 | 12.0 | 0.00 | 0.00 | 0.00 | 54 | 1013.7 |
| 20260505092526 | 57 | 126 | 6.0 | 10.0 | 0.00 | 0.00 | 0.00 | 55 | 1013.8 |
| 20260505091516 | 56 | 96 | 6.0 | 10.0 | 0.00 | 0.00 | 0.00 | 54 | 1013.8 |
| 20260505090518 | 56 | 72 | 5.0 | 10.0 | 0.00 | 0.00 | 0.00 | 55 | 1013.6 |
| 20260505085519 | 55 | 16 | 6.0 | 9.0 | 0.00 | 0.00 | 0.00 | 56 | 1013.5 |
| 20260505084520 | 55 | 73 | 4.0 | 8.0 | 0.00 | 0.00 | 0.00 | 58 | 1013.4 |
| 20260505083522 | 55 | 68 | 5.0 | 7.0 | 0.00 | 0.00 | 0.00 | 59 | 1013.3 |
| 20260505082520 | 55 | 55 | 4.0 | 9.0 | 0.00 | 0.00 | 0.00 | 59 | 1013.4 |
| 20260505081603 | 54 | 60 | 3.0 | 6.0 | 0.00 | 0.00 | 0.00 | 61 | 1013.5 |
| 20260505080525 | 54 | 122 | 5.0 | 7.0 | 0.00 | 0.00 | 0.00 | 61 | 1013.6 |
| 20260505075524 | 54 | 56 | 5.0 | 10.0 | 0.00 | 0.00 | 0.00 | 63 | 1013.6 |
| 20260505074515 | 53 | 79 | 5.0 | 12.0 | 0.00 | 0.00 | 0.00 | 63 | 1013.7 |
| 20260505073515 | 53 | 99 | 4.0 | 8.0 | 0.00 | 0.00 | 0.00 | 65 | 1013.8 |
| 20260505072516 | 53 | 50 | 4.0 | 8.0 | 0.00 | 0.00 | 0.00 | 66 | 1013.8 |
| 20260505071517 | 53 | 95 | 3.0 | 6.0 | 0.00 | 0.00 | 0.00 | 67 | 1013.9 |
| 20260505070519 | 53 | 55 | 3.0 | 7.0 | 0.00 | 0.00 | 0.00 | 67 | 1014.0 |
| 20260505065520 | 53 | 119 | 3.0 | 4.0 | 0.00 | 0.00 | 0.00 | 68 | 1014.0 |
| 20260505064522 | 52 | 79 | 4.0 | 5.0 | 0.00 | 0.00 | 0.00 | 69 | 1014.1 |
| 20260505063525 | 52 | 93 | 4.0 | 7.0 | 0.00 | 0.00 | 0.00 | 70 | 1014.1 |
| 20260505062537 | 52 | 126 | 2.0 | 5.0 | 0.00 | 0.00 | 0.00 | 72 | 1014.0 |
| 20260505061520 | 52 | 86 | 2.0 | 4.0 | 0.00 | 0.00 | 0.00 | 73 | 1013.9 |
| 20260505060522 | 51 | 71 | 2.0 | 5.0 | 0.00 | 0.00 | 0.00 | 73 | 1013.9 |
| 20260505055522 | 51 | 31 | 3.0 | 4.0 | 0.00 | 0.00 | 0.00 | 73 | 1014.0 |
| 20260505054524 | 51 | 50 | 3.0 | 4.0 | 0.00 | 0.00 | 0.00 | 73 | 1013.9 |